Regional Weather Roundup
Issued by NWS

Home | Current Version | Previous Version | Text Only | Print | Product List | Glossary Off
Versions: 1 2 3 4 5 6 7 8 9 10 11 12 13 14 15 16 17 18 19 20 21 22 23 24 25 26 27 28 29 30 31 32 33 34 35 36 37 38 39 40 41 42 43 44 45 46 47 48 49 50

000
ASUS43 KBIS 231410
RWRND

NORTH DAKOTA REGIONAL WEATHER ROUNDUP
NATIONAL WEATHER SERVICE BISMARCK ND
800 AM CST THU FEB 23 2017

NOTE: "FAIR" INDICATES FEW OR NO CLOUDS BELOW 12,000 FEET WITH NO
SIGNIFICANT WEATHER AND/OR OBSTRUCTIONS TO VISIBILITY.


NDZ001>003-009>011-017-231500-
NORTHWEST NORTH DAKOTA

CITY           SKY/WX    TMP DP  RH WIND       PRES   REMARKS
WILLISTON      CLOUDY    28  25  88 N16       30.03R WCI  16
MINOT          CLOUDY    27  22  81 N17       30.03R WCI  14
MINOT AFB      CLOUDY    23  19  86 NE17      30.03S WCI   9
$$

NDZ018>021-031>035-040>046-231500-
SOUTHWEST NORTH DAKOTA

CITY           SKY/WX    TMP DP  RH WIND       PRES   REMARKS
BISMARCK       CLOUDY    28  25  88 N5        30.02R
DICKINSON      CLOUDY    25  23  92 N6        29.95S FOG     WCI  18
GARRISON         N/A     28  26  92 NW12      29.99F WCI  18
HETTINGER ARPT CLOUDY    25  22  88 NE10      29.96R WCI  15
$$

NDZ004>008-012>016-024-026-027-054-231500-
NORTHEAST NORTH DAKOTA

CITY           SKY/WX    TMP DP  RH WIND       PRES   REMARKS
GRAND FORKS    CLOUDY    29  21  72 N7        30.05S
GRND FRKS AFB  CLOUDY    28  23  82 N6        30.05S
DEVILS LAKE    CLOUDY    26  24  92 N8        30.02S WCI  18
$$

NDZ022-023-025-028>030-036>039-047>053-231500-
SOUTHEAST NORTH DAKOTA

CITY           SKY/WX    TMP DP  RH WIND       PRES   REMARKS
FARGO          CLOUDY    30  23  75 N10       30.03R
JAMESTOWN      CLOUDY    28  25  88 N8        30.01R WCI  20
$$





USA.gov is the U.S. government's official web portal to all federal, state and local government web resources and services.